Preview of NWS' New Version of Forecast
This preview is not operational and should not be used for support decisions.
Latest weather observations around

San Diego, San Diego International-Lindbergh Field (KSAN)

Using English Units (Switch to International System of Units)
Date/ Time (PDT) Wind (mph) Vis. (mi) Weather Sky Cond. Temp (°F) Rel. Humidity Wind Chill (°F) Heat Index (°F) Pressure Precip. (in)
Air Dwpt 6 hour Altimeter (inHg) Sea level (inHg) 1 hr 3 hr 6 hr
Max Min
Jun 26 22:51 W 5 10 Mostly Cloudy BKN019 65 56     73%     30.01 30.01      
Jun 26 21:51 WNW 6 10 Mostly Cloudy BKN020 65 56     73%     30.01 30.01      
Jun 26 21:44 W 7 10 Mostly Cloudy BKN020 65 56     73%     30.01        
Jun 26 20:51 WNW 5 10 Partly Cloudy SCT024 64 55     73%     30 29.99      
Jun 26 19:51 NW 6 10 Partly Cloudy SCT024 65 55     70%     29.99 29.98      
Jun 26 18:51 NW 7 10 Mostly Clear FEW024 67 55     66%     29.97 29.97      
Jun 26 17:51 NW 8 10 Mostly Clear FEW024 68 55     63%     29.98 29.97      
Jun 26 16:51 WNW 9 10 Mostly Clear FEW024 69 55     61%     29.98 29.98      
Jun 26 15:51 W 9 10 Mostly Clear FEW026 70 54     57%     29.99 29.99      
Jun 26 14:51 W 9 10 Partly Cloudy SCT026 70 54     57%     30 30      
Jun 26 13:51 W 10 10 Partly Cloudy SCT026 69 54     59%     30 30      
Jun 26 12:51 SW 10 10 Partly Cloudy SCT023 68 54     61%     30.01 30      
Jun 26 12:41 SSW 9 10 Partly Cloudy SCT023 68 54     61%     30.01        
Jun 26 11:51 SSW 8 10 Mostly Cloudy BKN023 67 54     63%     30.01 30.01      
Jun 26 10:51 SSW 7 10 Cloudy OVC022 66 55     68%     30 30      
Jun 26 09:51 6 10 Cloudy OVC020 65 55     70%     29.99 29.99      
Jun 26 08:51 3 10 Cloudy OVC018 63 55     75%     29.99 29.99      
Jun 26 07:57 WSW 7 10 Cloudy OVC016 63 55     75%     29.99        
Jun 26 07:51   8 Clear   63 55     75%     29.98 29.98      
Jun 26 06:51 5 10 Cloudy OVC016 63 56     78%     29.97 29.96      
Jun 26 05:51 3 10 Cloudy OVC015 63 56     78%     29.95 29.95      
Jun 26 04:51 Calm 10 Cloudy OVC015 63 56     78%     29.93 29.93      
Jun 26 03:51 WSW 5 10 Cloudy OVC015 63 56     78%     29.92 29.92      
Jun 26 02:51 Calm 10 Cloudy OVC016 63 56     78%     29.92 29.92      
Jun 26 01:51 Calm 10 Cloudy OVC016 63 56     78%     29.94 29.93      
Jun 26 00:51 W 6 10 Cloudy OVC016 63 56     78%     29.95 29.94      
Jun 25 23:51 W 7 10 Cloudy OVC017 64 56     75%     29.96 29.95      
Jun 25 22:51 W 7 10 Cloudy OVC017 64 56     75%     29.96 29.96      
Jun 25 21:51 W 5 10 Cloudy OVC018 64 56     75%     29.95 29.95      
Jun 25 20:51 WNW 6 10 Cloudy OVC019 64 56     75%     29.94 29.93      
Jun 25 19:51 NW 3 10 Cloudy OVC019 65 56     73%     29.92 29.92      
Jun 25 18:51 WNW 7 10 Cloudy OVC019 65 56     73%     29.91 29.91      
Jun 25 17:51 WNW 9 10 Cloudy OVC018 66 56     70%     29.91 29.91      
Jun 25 16:51 WNW 6 10 Mostly Cloudy BKN018 66 57     73%     29.92 29.92      
Jun 25 15:51 WNW 7 10 Mostly Cloudy BKN019 67 57     71%     29.93 29.93      
Jun 25 14:51 W 9 10 Cloudy OVC022 68 57     68%     29.94 29.94      
Jun 25 13:51 WNW 8 10 Cloudy OVC023 68 56     65%     29.95 29.95      
Jun 25 12:51 6 10 Cloudy OVC023 67 56     68%     29.96 29.96      
Jun 25 11:51 SSW 7 10 Mostly Cloudy FEW018 BKN021 66 57     73%     29.96 29.96      
Jun 25 10:51 W 8 10 Cloudy BKN018 OVC022 65 57     76%     29.96 29.95      
Jun 25 09:51 7 10 Cloudy OVC018 65 57     76%     29.94 29.94      
Jun 25 08:51 5 10 Cloudy OVC018 65 56     73%     29.93 29.93      
Jun 25 07:51 NW 3 10 Cloudy SCT014 OVC017 64 57     78%     29.91 29.91      
Jun 25 06:51 3 10 Cloudy BKN014 OVC017 64 57     78%     29.89 29.88      
Jun 25 05:51 Calm 9 Cloudy OVC014 64 57     78%     29.88 29.88      
Jun 25 04:51 N 5 9 Cloudy OVC013 63 57     81%     29.87 29.87 0   0
Jun 25 03:51 WNW 3 9 Cloudy OVC012 63 58     84%     29.87 29.87 0    
Jun 25 02:51 NNW 3 9 Clear   63 58     84%     29.88 29.88      
Jun 25 01:51 NW 5 10 Cloudy OVC011 63 58     84%     29.89 29.88      
Jun 25 00:51 NW 5 10 Cloudy OVC012 64 58     81%     29.89 29.89      
Jun 24 23:51 SW 6 10 Cloudy OVC013 64 58     81%     29.9 29.9      
Jun 24 22:51 WNW 3 10 Cloudy OVC013 64 58     81%     29.91 29.91      
Jun 24 21:51 Calm 10 Cloudy OVC014 65 58     78%     29.92 29.91      
Jun 24 20:51 WNW 5 10 Cloudy OVC014 65 58     78%     29.9 29.9      
Jun 24 19:51 Calm 10 Cloudy OVC013 65 58     78%     29.9 29.9      
Jun 24 18:51 6 10 Cloudy OVC012 65 59     81%     29.9 29.9      
Jun 24 17:51 WSW 8 10 Clear   66 59     78%     29.9 29.9      
Jun 24 16:51 W 10 10 Mostly Cloudy BKN014 BKN019 68 59     73%     29.91 29.91      
Jun 24 15:51 W 8 10 Mostly Cloudy BKN014 BKN019 68 59     73%     29.91 29.91      
Jun 24 14:51 WNW 8 10 Cloudy BKN014 OVC019 68 59     73%     29.92 29.92      
Jun 24 13:51 W 9 10 Cloudy BKN011 OVC019 68 59     73%     29.94 29.93      
Jun 24 12:51 WNW 10 10 Cloudy BKN014 OVC019 68 60     76%     29.95 29.95      
Jun 24 12:41 W 11 10 Cloudy BKN014 OVC019 67 60     79%     29.95        
Jun 24 11:51 W 10 10 Cloudy OVC019 69 59     70%     29.96 29.95      
Jun 24 10:51 W 9 10 Cloudy OVC018 68 59     73%     29.95 29.95      
Jun 24 09:51 WNW 6 10 Cloudy OVC015 67 59     76%     29.95 29.95      
Jun 24 09:17 NNW 5 10 Cloudy OVC015 67 59     76%     29.95        
Jun 24 08:51 Calm 10 Cloudy OVC014 66 59     78%     29.95 29.94      
Jun 24 07:51 3 10 Cloudy OVC012 65 59     81%     29.95 29.94      
Jun 24 06:51 WNW 5 10 Cloudy OVC012 65 59     81%     29.93 29.93      
Jun 24 05:51 WNW 5 10 Cloudy OVC012 64 60     87%     29.93 29.93      
Jun 24 04:51 WNW 5 10 Cloudy OVC013 64 60     87%     29.93 29.93      
Jun 24 03:51 WNW 5 10 Cloudy OVC013 64 60     87%     29.94 29.93      
Jun 24 02:51 NW 3 7 Cloudy OVC010 63 61     93%     29.94 29.94      
Jun 24 02:33 Calm 9 Cloudy OVC010 63 61     93%     29.95        
Jun 24 01:51 NW 3 5 Fog/Mist OVC009 64 61     90%     29.95 29.95      
Jun 24 01:42 NNW 3 6 Fog/Mist OVC009 63 61     93%     29.96        
Jun 24 00:51 W 7 7 Cloudy OVC011 64 60     87%     29.97 29.97      
Jun 23 23:51 WSW 7 10 Cloudy OVC011 65 60     84%     29.98 29.98      
Jun 23 22:51 WNW 5 10 Cloudy OVC012 65 60     84%     29.98 29.97      
May 13 18:51 WNW 10 10 Partly Cloudy FEW022 SCT040 64 50     60%     30 29.99      
May 11 19:01 SSW 10 10 Cloudy BKN014 BKN025 OVC031 59 53     81%     29.89        
Jun 12 02:51 S 6 10 Cloudy BKN024 OVC032 62 53     72%     30.01 30.01      
Jun 11 15:51 SSW 11 10 Mostly Cloudy BKN024 64 52     65%     29.97 29.97      
Jun 10 23:51 S 6 10 Clear   62 54     75%     29.92 29.92      
Jun 10 12:51 WSW 11 10 Cloudy FEW010 OVC019 65 55     70%     29.95 29.94      
Jun 10 02:38 W 6 10 Cloudy SCT007 OVC011 65 61     87%     29.92        
Jun 10 00:14 W 6 10 Mostly Cloudy BKN009 BKN015 65 62     90%     29.94        
Jun 09 13:51 WNW 11 10 Mostly Clear FEW020 71 58     63%   71 29.95 29.95      
Jun 09 09:51 SSW 6 10 Mostly Clear FEW020 FEW250 67 55     66%     29.98 29.97      
Jun 08 23:51 NNW 7 10 Cloudy OVC014 65 58     78%     29.98 29.98      
Notice The following observation data may not be complete
Jun 08 09:39   10 Mostly Cloudy SCT024 BKN250          %              
Jun 06 09:51 WSW 6 8 Cloudy FEW008 OVC010 63 60     90%     29.97 29.96      
Jun 05 15:51 SSW 10 10 Cloudy BKN012 OVC015 65 58     78%     29.89 29.89